Regional Weather Roundup
Issued by NWS Bismarck, ND

Home | Current Version | Previous Version | Text Only | Print | Product List | Glossary On
Versions: 1 2 3 4 5 6 7 8 9 10 11 12 13 14 15 16 17 18 19 20 21 22 23 24 25 26 27 28 29 30 31 32 33 34 35 36 37 38 39 40 41 42 43 44 45 46 47 48 49 50
000
ASUS43 KBIS 191402
RWRBIS

NWR BROADCAST TEXT
NATIONAL WEATHER SERVICE BISMARCK ND
800 AM CST SUN FEB 19 2017

NOTE: "FAIR" INDICATES FEW OR NO CLOUDS BELOW 12,000 FEET WITH NO
SIGNIFICANT WEATHER AND/OR OBSTRUCTIONS TO VISIBILITY.


CITY           SKY/WX    TMP DP  RH WIND       PRES   REMARKS
WILLISTON      CLOUDY    33  31  92 E8        29.57S
MINOT          CLOUDY    34  32  92 NE9       29.62F
MINOT AFB      NOT AVBL
BISMARCK       FAIR      36  33  89 E9        29.60F
DICKINSON      FOG       27  26  96 E7        29.51S VSB 1/4 WCI  19
GARRISON         N/A     33  31  92 E10       29.57F
HETTINGER ARPT FAIR      30  27  88 CALM      29.54R
JAMESTOWN      FAIR      36  34  92 SE10      29.68S
CARRINGTON     FAIR      34  34 100 SE13G20   29.68F
HAZEN            N/A    N/A N/A N/A NE3       29.59F
MANDAN         FAIR      32  32 100 E9        29.59F
STANLEY        FOG       30  30 100 E12       29.61F VSB 1/2
$$

CITY           SKY/WX    TMP DP  RH WIND       PRES   REMARKS
GRAND FORKS    CLOUDY    36  30  79 E9        29.79S
GRAND FORKS AF CLOUDY    34  32  92 SE6       29.78S
DEVILS LAKE    CLOUDY    35  32  88 E15       29.70F
FARGO          FAIR      42  37  82 SE14      29.78R
CAVALIER       FAIR      32  30  93 E7        29.82R
GRAFTON        FAIR      34  34 100 E6        29.82S
GWINNER        FAIR      36  36 100 E6        29.74S
ROLLA          LGT RAIN  32  32 100 E10       29.74S
$$

CITY           SKY/WX    TMP DP  RH WIND       PRES   REMARKS
ABERDEEN       FAIR      41  33  73 S8        29.70F
MOBRIDGE       FAIR      40  32  73 SE6       29.57F
BUFFALO          N/A     39  32  76 S10       29.45S
RAPID CITY     FAIR      35  28  75 CALM      29.56S
GLASGOW        FAIR      31  29  92 E17G25    29.46S FOG     WCI  19
SIDNEY         FOG       32  31  96 NE5       29.54F VSB 1/2
WOLF POINT     CLOUDY    32  30  92 E16       29.51F FOG
GLENDIVE       FAIR      30  29  96 NE10      29.50S FOG
MILES CITY     FAIR      32  28  85 NE7       29.46S
BAKER          FAIR      31  28  89 SE7       29.48F
$$

CITY           SKY/WX    TMP DP  RH WIND       PRES   REMARKS
BILLINGS       FAIR      37  32  82 SW8       29.43R
GREAT FALLS    CLOUDY    45  33  63 SW16      29.36R
$$





USA.gov is the U.S. government's official web portal to all federal, state and local government web resources and services.